This demonstration page uses our WeatherBlox Daily Observations layout. Learn more.

39.29038, -76.61219

Hourly Observations for July 22, 2016

Temp ( °F °C ) Dew Point ( °F °C ) Humidity (%) Winds ( mph kmh ) Pressure ( in mb ) Visibility ( mi km ) Precip ( " mm )
12:54 am 00:54 undefined 78 25.6 64 17.8 62 62 undefined N/A 30.06 1018 N/A 0 0
1:54 am 01:54 undefined 77 25 64 17.8 64 64 undefined N/A 30.05 1018 N/A 0 0
2:54 am 02:54 undefined 76 24.4 64 17.8 67 67 undefined N/A 30.04 1017 N/A 0 0
3:54 am 03:54 undefined 76 24.4 65 18.3 69 69 undefined N/A 30.03 1017 N/A 0 0
4:54 am 04:54 undefined 76 24.4 66 18.9 72 72 undefined N/A 30.03 1017 N/A 0 0
5:54 am 05:54 undefined 75 23.9 66 18.9 74 74 undefined N/A 30.04 1017 N/A 0 0
6:54 am 06:54 undefined 76 24.4 67 19.4 74 74 undefined N/A 30.02 1017 N/A 0 0
7:54 am 07:54 undefined 77 25 68 20 74 74 undefined N/A 30.02 1017 N/A 0 0
8:54 am 08:54 undefined 81 27.2 69 20.6 67 67 undefined N/A 30.02 1017 N/A 0 0
9:54 am 09:54 undefined 86 30 67 19.4 53 53 undefined N/A 30 1016 N/A 0 0
10:54 am 10:54 undefined 87 30.6 66 18.9 50 50 undefined N/A 30 1016 N/A 0 0
11:54 am 11:54 undefined 90 32.2 67 19.4 47 47 undefined N/A 29.99 1016 N/A 0 0
12:54 pm 12:54 undefined 92 33.3 67 19.4 44 44 undefined N/A 29.98 1015 N/A 0 0
1:54 pm 13:54 undefined 94 34.4 68 20 43 43 undefined N/A 29.96 1014 N/A 0 0
2:54 pm 14:54 undefined 94 34.4 68 20 43 43 undefined N/A 29.94 1014 N/A 0 0
3:54 pm 15:54 undefined 95 35 69 20.6 43 43 undefined N/A 29.92 1013 N/A 0 0
4:54 pm 16:54 undefined 93 33.9 68 20 44 44 undefined N/A 29.9 1013 N/A 0 0
5:54 pm 17:54 undefined 94 34.4 68 20 43 43 undefined N/A 29.89 1012 N/A 0 0
6:54 pm 18:54 undefined 93 33.9 69 20.6 46 46 undefined N/A 29.88 1012 N/A 0 0
7:54 pm 19:54 undefined 91 32.8 66 18.9 44 44 undefined N/A 29.88 1012 N/A 0 0
8:54 pm 20:54 undefined 89 31.7 67 19.4 48 48 undefined N/A 29.88 1012 N/A 0 0
9:54 pm 21:54 undefined 88 31.1 68 20 52 52 undefined N/A 29.89 1012 N/A 0 0
10:54 pm 22:54 undefined 86 30 69 20.6 57 57 undefined N/A 29.9 1013 N/A 0 0
11:54 pm 23:54 undefined 85 29.4 70 21.1 61 61 undefined N/A 29.91 1013 N/A 0 0

Powered by AerisWeather